QPF
0.00 0.00 0.01 0.00 0.00 0.00 0.00 0.00 0.00 0.00 0.00 0.00 0.00 0.00 0.00 0.00 0.00 0.00 0.00 0.00 0.00 0.01 0.01 0.01 0.01 0.01 0.01 0.02 0.02 0.02 0.03 0.03 0.03 0.03 0.03 0.03 0.03 0.03 0.03 0.05 0.05 0.02 0.01
0.00 0.00 0.00 0.00 0.00 0.00 0.00 0.00 0.00 0.00 0.00 0.00 0.00 0.00 0.00 0.00 0.00 0.00 0.00 0.00 0.00 0.00 0.01 0.01 0.01 0.01 0.01 0.02 0.03 0.03 0.03 0.03 0.03 0.03 0.04 0.04 0.04 0.04 0.03 0.03 0.03 0.01 0.02
0.00 0.00 0.00 0.00 0.00 0.00 0.00 0.00 0.00 0.00 0.00 0.00 0.00 0.00 0.00 0.00 0.00 0.00 0.00 0.00 0.00 0.01 0.01 0.01 0.01 0.01 0.01 0.02 0.03 0.03 0.03 0.03 0.02 0.04 0.04 0.05 0.05 0.05 0.04 0.03 0.02 0.02 0.02
0.00 0.00 0.00 0.00 0.00 0.00 0.00 0.00 0.00 0.00 0.00 0.00 0.00 0.00 0.00 0.00 0.00 0.00 0.00 0.00 0.00 0.01 0.01 0.01 0.01 0.01 0.01 0.01 0.02 0.02 0.01 0.02 0.03 0.04 0.04 0.05 0.05 0.06 0.04 0.03 0.02 0.02 0.02
0.00 0.00 0.00 0.00 0.00 0.00 0.00 0.00 0.00 0.00 0.01 0.01 0.00 0.00 0.00 0.00 0.00 0.00 0.00 0.00 0.00 0.00 0.01 0.01 0.01 0.01 0.01 0.01 0.01 0.02 0.01 0.01 0.02 0.03 0.02 0.03 0.03 0.06 0.05 0.03 0.03 0.03 0.02
0.00 0.00 0.00 0.00 0.00 0.00 0.00 0.00 0.01 0.00 0.01 0.01 0.00 0.00 0.00 0.00 0.00 0.00 0.00 0.00 0.00 0.00 0.01 0.01 0.01 0.01 0.01 0.01 0.01 0.02 0.01 0.01 0.03 0.03 0.02 0.02 0.02 0.05 0.04 0.03 0.03 0.02 0.02
0.00 0.00 0.00 0.00 0.00 0.00 0.00 0.00 0.01 0.01 0.01 0.01 0.01 0.01 0.00 0.00 0.00 0.00 0.00 0.00 0.00 0.00 0.00 0.00 0.01 0.00 0.00 0.01 0.01 0.01 0.01 0.02 0.04 0.03 0.02 0.01 0.01 0.03 0.03 0.03 0.03 0.02 0.02
0.00 0.00 0.00 0.00 0.00 0.00 0.00 0.00 0.00 0.01 0.01 0.01 0.01 0.01 0.00 0.00 0.00 0.00 0.00 0.00 0.00 0.00 0.00 0.00 0.00 0.00 0.00 0.01 0.01 0.00 0.01 0.02 0.03 0.04 0.01 0.01 0.02 0.04 0.03 0.02 0.03 0.02 0.03
0.00 0.00 0.00 0.00 0.00 0.00 0.00 0.00 0.00 0.01 0.01 0.02 0.01 0.01 0.01 0.00 0.00 0.00 0.00 0.00 0.00 0.00 0.00 0.00 0.00 0.00 0.00 0.00 0.00 0.00 0.01 0.03 0.04 0.05 0.03 0.02 0.04 0.05 0.04 0.03 0.03 0.02 0.02
0.00 0.00 0.00 0.00 0.00 0.00 0.00 0.00 0.00 0.00 0.01 0.01 0.01 0.01 0.00 0.00 0.00 0.00 0.00 0.00 0.00 0.00 0.00 0.00 0.00 0.00 0.00 0.00 0.00 0.00 0.01 0.03 0.05 0.04 0.03 0.03 0.06 0.05 0.04 0.03 0.02 0.02 0.01
0.00 0.00 0.00 0.00 0.00 0.00 0.00 0.00 0.01 0.00 0.00 0.00 0.00 0.00 0.00 0.00 0.00 0.00 0.00 0.00 0.00 0.00 0.00 0.00 0.00 0.00 0.00 0.00 0.00 0.01 0.01 0.03 0.05 0.04 0.02 0.04 0.06 0.04 0.02 0.02 0.02 0.02 0.01
0.01 0.00 0.00 0.00 0.00 0.00 0.00 0.00 0.01 0.00 0.00 0.00 0.00 0.00 0.00 0.00 0.00 0.00 0.00 0.00 0.00 0.00 0.00 0.00 0.00 0.00 0.00 0.00 0.00 0.00 0.01 0.02 0.04 0.02 0.02 0.03 0.05 0.03 0.02 0.02 0.02 0.01 0.01
0.01 0.02 0.01 0.01 0.00 0.00 0.00 0.00 0.00 0.00 0.00 0.00 0.00 0.00 0.01 0.01 0.01 0.00 0.00 0.00 0.00 0.00 0.00 0.00 0.00 0.00 0.00 0.00 0.00 0.00 0.01 0.01 0.02 0.01 0.01 0.02 0.03 0.02 0.02 0.02 0.01 0.01 0.01
0.01 0.02 0.03 0.04 0.03 0.02 0.01 0.01 0.01 0.00 0.00 0.00 0.00 0.01 0.01 0.01 0.01 0.01 0.00 0.00 0.00 0.00 0.00 0.00 0.00 0.00 0.00 0.00 0.00 0.00 0.00 0.01 0.01 0.00 0.00 0.01 0.02 0.02 0.01 0.01 0.01 0.01 0.01
0.02 0.02 0.03 0.06 0.05 0.04 0.03 0.02 0.02 0.01 0.01 0.01 0.01 0.01 0.01 0.01 0.01 0.00 0.00 0.00 0.00 0.00 0.00 0.00 0.00 0.00 0.00 0.00 0.00 0.00 0.00 0.00 0.00 0.00 0.00 0.00 0.00 0.01 0.01 0.01 0.01 0.01 0.01
0.04 0.03 0.03 0.05 0.05 0.06 0.04 0.03 0.03 0.02 0.03 0.03 0.02 0.02 0.02 0.02 0.01 0.00 0.00 0.00 0.00 0.00 0.00 0.00 0.00 0.00 0.00 0.00 0.00 0.00 0.00 0.00 0.00 0.00 0.00 0.00 0.00 0.00 0.01 0.01 0.01 0.01 0.01
0.07 0.07 0.06 0.05 0.04 0.04 0.04 0.05 0.05 0.05 0.05 0.05 0.03 0.03 0.02 0.02 0.01 0.01 0.01 0.01 0.00 0.00 0.00 0.00 0.00 0.00 0.00 0.00 0.00 0.00 0.00 0.00 0.00 0.00 0.00 0.00 0.00 0.00 0.00 0.01 0.01 0.01 0.01
0.11 0.10 0.09 0.07 0.06 0.07 0.08 0.09 0.07 0.07 0.06 0.06 0.05 0.03 0.03 0.03 0.02 0.02 0.01 0.02 0.02 0.01 0.01 0.00 0.00 0.00 0.00 0.00 0.00 0.00 0.00 0.00 0.00 0.00 0.00 0.00 0.00 0.00 0.00 0.00 0.00 0.00 0.00
0.15 0.14 0.14 0.12 0.10 0.10 0.10 0.10 0.12 0.13 0.14 0.13 0.09 0.06 0.05 0.05 0.04 0.04 0.04 0.05 0.03 0.02 0.02 0.01 0.01 0.01 0.01 0.00 0.00 0.00 0.00 0.00 0.00 0.00 0.00 0.01 0.00 0.00 0.00 0.00 0.00 0.00 0.00
0.13 0.14 0.15 0.15 0.14 0.11 0.11 0.12 0.16 0.19 0.20 0.20 0.16 0.09 0.07 0.06 0.06 0.04 0.05 0.05 0.05 0.04 0.04 0.03 0.03 0.02 0.02 0.02 0.01 0.02 0.02 0.01 0.01 0.00 0.00 0.01 0.01 0.00 0.00 0.00 0.00 0.00 0.00
0.08 0.10 0.12 0.13 0.14 0.14 0.12 0.13 0.19 0.22 0.24 0.22 0.18 0.16 0.14 0.12 0.11 0.09 0.08 0.08 0.08 0.06 0.05 0.04 0.03 0.03 0.03 0.04 0.03 0.03 0.03 0.03 0.02 0.01 0.00 0.00 0.01 0.00 0.00 0.00 0.00 0.00 0.00
0.04 0.07 0.09 0.11 0.13 0.15 0.13 0.13 0.21 0.27 0.30 0.33 0.32 0.27 0.25 0.21 0.17 0.12 0.12 0.13 0.11 0.08 0.05 0.03 0.04 0.05 0.05 0.05 0.06 0.05 0.02 0.02 0.02 0.02 0.02 0.01 0.01 0.01 0.01 0.00 0.00 0.00 0.00
0.01 0.03 0.04 0.06 0.08 0.10 0.11 0.14 0.23 0.32 0.37 0.41 0.41 0.38 0.34 0.29 0.22 0.18 0.17 0.15 0.12 0.10 0.08 0.06 0.05 0.06 0.06 0.06 0.07 0.08 0.05 0.02 0.01 0.02 0.03 0.04 0.03 0.03 0.01 0.00 0.00 0.00 0.00
0.00 0.01 0.01 0.02 0.02 0.04 0.08 0.14 0.20 0.30 0.36 0.38 0.41 0.45 0.45 0.39 0.31 0.26 0.22 0.19 0.16 0.12 0.11 0.11 0.10 0.09 0.10 0.08 0.07 0.06 0.07 0.07 0.05 0.02 0.03 0.06 0.07 0.06 0.05 0.03 0.01 0.01 0.00
0.01 0.01 0.00 0.00 0.01 0.02 0.05 0.10 0.15 0.23 0.30 0.40 0.49 0.53 0.49 0.42 0.35 0.31 0.27 0.24 0.19 0.16 0.15 0.14 0.14 0.13 0.12 0.12 0.11 0.08 0.07 0.08 0.08 0.08 0.04 0.03 0.05 0.07 0.08 0.07 0.03 0.02 0.01
0.01 0.01 0.01 0.00 0.00 0.01 0.02 0.05 0.08 0.14 0.22 0.31 0.41 0.47 0.46 0.40 0.37 0.36 0.33 0.27 0.22 0.19 0.19 0.17 0.16 0.16 0.15 0.15 0.13 0.11 0.09 0.09 0.10 0.09 0.05 0.03 0.02 0.04 0.07 0.08 0.06 0.03 0.02
MSLP
1014.26 1013.79 1013.46 1013.32 1013.37 1013.56 1013.82 1014.05 1014.20 1014.23 1014.15 1014.02 1013.89 1013.82 1013.87 1014.03 1014.28 1014.58 1014.86 1015.07 1015.19 1015.22 1015.18 1015.11 1015.06 1015.06 1015.12 1015.23 1015.37 1015.50 1015.60 1015.65 1015.63 1015.58 1015.50 1015.42 1015.36 1015.32 1015.31 1015.32 1015.33 1015.34 1015.35
1014.03 1013.67 1013.44 1013.39 1013.50 1013.73 1013.99 1014.22 1014.34 1014.36 1014.28 1014.16 1014.06 1014.05 1014.15 1014.35 1014.62 1014.91 1015.16 1015.33 1015.40 1015.39 1015.31 1015.23 1015.18 1015.17 1015.23 1015.34 1015.47 1015.58 1015.65 1015.68 1015.67 1015.62 1015.57 1015.52 1015.50 1015.49 1015.49 1015.49 1015.49 1015.46 1015.43
1013.71 1013.46 1013.34 1013.39 1013.57 1013.84 1014.13 1014.35 1014.47 1014.49 1014.43 1014.34 1014.29 1014.32 1014.46 1014.68 1014.94 1015.20 1015.39 1015.50 1015.51 1015.45 1015.36 1015.27 1015.23 1015.24 1015.32 1015.43 1015.54 1015.64 1015.70 1015.71 1015.70 1015.68 1015.66 1015.66 1015.67 1015.70 1015.72 1015.72 1015.69 1015.64 1015.57
1013.35 1013.21 1013.20 1013.35 1013.61 1013.93 1014.24 1014.47 1014.60 1014.63 1014.59 1014.54 1014.53 1014.61 1014.76 1014.98 1015.21 1015.41 1015.54 1015.57 1015.53 1015.43 1015.33 1015.26 1015.24 1015.29 1015.39 1015.52 1015.63 1015.72 1015.77 1015.78 1015.77 1015.77 1015.79 1015.83 1015.89 1015.95 1015.98 1015.98 1015.94 1015.85 1015.76
1013.03 1013.00 1013.09 1013.33 1013.66 1014.03 1014.35 1014.59 1014.72 1014.76 1014.74 1014.73 1014.76 1014.86 1015.03 1015.23 1015.42 1015.56 1015.61 1015.58 1015.48 1015.37 1015.27 1015.23 1015.26 1015.36 1015.49 1015.64 1015.76 1015.84 1015.88 1015.89 1015.89 1015.91 1015.96 1016.03 1016.12 1016.20 1016.25 1016.24 1016.18 1016.08 1015.97
1012.82 1012.87 1013.05 1013.37 1013.75 1014.15 1014.48 1014.71 1014.84 1014.87 1014.87 1014.88 1014.94 1015.06 1015.23 1015.42 1015.57 1015.65 1015.64 1015.56 1015.43 1015.31 1015.23 1015.23 1015.31 1015.46 1015.63 1015.80 1015.93 1016.00 1016.03 1016.04 1016.04 1016.08 1016.14 1016.24 1016.35 1016.43 1016.48 1016.47 1016.40 1016.29 1016.18
1012.74 1012.85 1013.10 1013.47 1013.89 1014.29 1014.61 1014.82 1014.92 1014.95 1014.95 1014.98 1015.06 1015.21 1015.39 1015.56 1015.68 1015.72 1015.67 1015.56 1015.42 1015.31 1015.26 1015.30 1015.42 1015.61 1015.81 1015.99 1016.12 1016.19 1016.21 1016.20 1016.21 1016.25 1016.32 1016.43 1016.53 1016.61 1016.65 1016.62 1016.55 1016.45 1016.35
1012.76 1012.92 1013.22 1013.62 1014.04 1014.43 1014.71 1014.88 1014.95 1014.96 1014.97 1015.01 1015.12 1015.29 1015.49 1015.67 1015.78 1015.81 1015.74 1015.62 1015.48 1015.39 1015.36 1015.43 1015.59 1015.79 1016.00 1016.18 1016.30 1016.35 1016.36 1016.36 1016.36 1016.40 1016.48 1016.57 1016.67 1016.73 1016.75 1016.71 1016.63 1016.54 1016.47
1012.80 1013.00 1013.33 1013.74 1014.16 1014.51 1014.75 1014.87 1014.91 1014.90 1014.91 1014.99 1015.13 1015.34 1015.57 1015.77 1015.90 1015.93 1015.87 1015.75 1015.63 1015.55 1015.54 1015.62 1015.78 1015.97 1016.17 1016.33 1016.43 1016.47 1016.47 1016.46 1016.47 1016.52 1016.59 1016.68 1016.76 1016.80 1016.79 1016.74 1016.66 1016.58 1016.54
1012.78 1013.01 1013.37 1013.78 1014.17 1014.48 1014.67 1014.76 1014.77 1014.76 1014.79 1014.90 1015.09 1015.35 1015.62 1015.86 1016.02 1016.07 1016.03 1015.94 1015.83 1015.75 1015.75 1015.82 1015.95 1016.12 1016.28 1016.41 1016.48 1016.51 1016.51 1016.51 1016.53 1016.59 1016.67 1016.76 1016.82 1016.84 1016.82 1016.75 1016.67 1016.61 1016.61
1012.64 1012.90 1013.26 1013.66 1014.02 1014.30 1014.46 1014.52 1014.52 1014.53 1014.60 1014.76 1015.01 1015.32 1015.64 1015.93 1016.12 1016.21 1016.20 1016.12 1016.03 1015.96 1015.94 1015.99 1016.09 1016.21 1016.32 1016.41 1016.45 1016.47 1016.47 1016.50 1016.55 1016.63 1016.73 1016.82 1016.88 1016.89 1016.86 1016.79 1016.71 1016.67 1016.69
1012.37 1012.64 1013.00 1013.38 1013.71 1013.95 1014.09 1014.15 1014.18 1014.22 1014.35 1014.57 1014.88 1015.25 1015.62 1015.94 1016.17 1016.29 1016.30 1016.25 1016.18 1016.11 1016.08 1016.10 1016.16 1016.23 1016.29 1016.33 1016.36 1016.37 1016.40 1016.45 1016.54 1016.65 1016.78 1016.89 1016.95 1016.97 1016.93 1016.87 1016.81 1016.79 1016.83
1012.00 1012.28 1012.62 1012.97 1013.27 1013.48 1013.61 1013.68 1013.75 1013.85 1014.04 1014.32 1014.69 1015.11 1015.51 1015.86 1016.11 1016.26 1016.30 1016.28 1016.22 1016.17 1016.14 1016.14 1016.16 1016.19 1016.21 1016.23 1016.24 1016.26 1016.31 1016.40 1016.52 1016.68 1016.83 1016.96 1017.04 1017.07 1017.04 1016.99 1016.96 1016.96 1017.03
1011.65 1011.90 1012.20 1012.50 1012.75 1012.94 1013.07 1013.16 1013.27 1013.44 1013.69 1014.03 1014.44 1014.87 1015.29 1015.65 1015.91 1016.07 1016.14 1016.15 1016.13 1016.11 1016.10 1016.10 1016.11 1016.12 1016.12 1016.12 1016.13 1016.17 1016.24 1016.36 1016.52 1016.71 1016.89 1017.03 1017.12 1017.16 1017.16 1017.14 1017.13 1017.17 1017.26
1011.42 1011.62 1011.85 1012.08 1012.27 1012.42 1012.54 1012.66 1012.80 1013.02 1013.31 1013.69 1014.11 1014.55 1014.95 1015.29 1015.55 1015.72 1015.82 1015.87 1015.90 1015.93 1015.96 1015.99 1016.02 1016.04 1016.05 1016.06 1016.08 1016.14 1016.23 1016.38 1016.55 1016.75 1016.93 1017.08 1017.18 1017.23 1017.25 1017.26 1017.29 1017.36 1017.48
1011.45 1011.55 1011.69 1011.82 1011.93 1012.02 1012.11 1012.22 1012.38 1012.62 1012.93 1013.30 1013.71 1014.11 1014.47 1014.77 1015.01 1015.19 1015.32 1015.43 1015.54 1015.64 1015.75 1015.85 1015.93 1015.99 1016.03 1016.07 1016.11 1016.18 1016.29 1016.44 1016.62 1016.80 1016.97 1017.10 1017.19 1017.23 1017.27 1017.31 1017.38 1017.50 1017.65
1011.79 1011.78 1011.78 1011.78 1011.78 1011.79 1011.82 1011.90 1012.05 1012.27 1012.56 1012.89 1013.24 1013.57 1013.87 1014.12 1014.33 1014.52 1014.70 1014.88 1015.08 1015.29 1015.50 1015.69 1015.85 1015.97 1016.07 1016.14 1016.21 1016.30 1016.41 1016.56 1016.71 1016.87 1016.99 1017.08 1017.14 1017.17 1017.21 1017.27 1017.38 1017.54 1017.74
1012.44 1012.29 1012.15 1012.00 1011.87 1011.76 1011.71 1011.72 1011.81 1011.98 1012.20 1012.46 1012.72 1012.97 1013.19 1013.38 1013.57 1013.77 1014.00 1014.27 1014.58 1014.90 1015.22 1015.52 1015.78 1015.98 1016.13 1016.25 1016.35 1016.46 1016.58 1016.71 1016.83 1016.94 1017.01 1017.05 1017.06 1017.06 1017.08 1017.15 1017.29 1017.48 1017.72
1013.32 1013.03 1012.74 1012.44 1012.16 1011.93 1011.76 1011.68 1011.68 1011.76 1011.88 1012.04 1012.19 1012.34 1012.48 1012.62 1012.80 1013.02 1013.31 1013.67 1014.08 1014.52 1014.95 1015.36 1015.70 1015.98 1016.20 1016.37 1016.51 1016.64 1016.77 1016.89 1016.98 1017.04 1017.05 1017.03 1016.98 1016.94 1016.93 1017.00 1017.14 1017.36 1017.62
1014.33 1013.91 1013.47 1013.03 1012.61 1012.24 1011.95 1011.75 1011.63 1011.59 1011.61 1011.64 1011.69 1011.74 1011.81 1011.91 1012.08 1012.33 1012.69 1013.13 1013.64 1014.18 1014.71 1015.20 1015.62 1015.96 1016.23 1016.45 1016.64 1016.80 1016.95 1017.06 1017.14 1017.16 1017.13 1017.04 1016.94 1016.85 1016.81 1016.85 1016.98 1017.20 1017.47
1015.32 1014.80 1014.25 1013.68 1013.13 1012.63 1012.21 1011.88 1011.65 1011.49 1011.38 1011.30 1011.24 1011.21 1011.23 1011.31 1011.49 1011.78 1012.20 1012.72 1013.30 1013.92 1014.51 1015.05 1015.51 1015.90 1016.21 1016.47 1016.70 1016.90 1017.08 1017.21 1017.30 1017.31 1017.24 1017.12 1016.97 1016.83 1016.75 1016.75 1016.85 1017.05 1017.32
1016.20 1015.61 1014.97 1014.31 1013.65 1013.04 1012.50 1012.06 1011.71 1011.43 1011.21 1011.03 1010.89 1010.81 1010.79 1010.87 1011.08 1011.42 1011.89 1012.46 1013.09 1013.74 1014.36 1014.91 1015.39 1015.78 1016.11 1016.40 1016.67 1016.91 1017.14 1017.32 1017.43 1017.46 1017.39 1017.26 1017.07 1016.89 1016.76 1016.71 1016.77 1016.94 1017.17
1016.90 1016.27 1015.58 1014.84 1014.10 1013.41 1012.78 1012.24 1011.79 1011.41 1011.11 1010.86 1010.67 1010.55 1010.54 1010.64 1010.87 1011.26 1011.77 1012.37 1013.02 1013.66 1014.26 1014.79 1015.23 1015.61 1015.93 1016.23 1016.53 1016.82 1017.10 1017.34 1017.50 1017.57 1017.53 1017.40 1017.21 1017.00 1016.83 1016.73 1016.74 1016.84 1017.03
1017.41 1016.76 1016.03 1015.25 1014.47 1013.71 1013.02 1012.41 1011.89 1011.44 1011.08 1010.79 1010.58 1010.46 1010.46 1010.59 1010.87 1011.29 1011.82 1012.43 1013.06 1013.67 1014.21 1014.67 1015.06 1015.38 1015.67 1015.97 1016.28 1016.61 1016.95 1017.25 1017.48 1017.60 1017.61 1017.51 1017.32 1017.10 1016.90 1016.75 1016.70 1016.75 1016.88
1017.76 1017.10 1016.35 1015.55 1014.74 1013.95 1013.22 1012.57 1012.00 1011.52 1011.13 1010.83 1010.62 1010.52 1010.55 1010.72 1011.03 1011.47 1012.01 1012.59 1013.18 1013.72 1014.18 1014.56 1014.86 1015.11 1015.36 1015.63 1015.94 1016.30 1016.67 1017.03 1017.33 1017.51 1017.57 1017.51 1017.35 1017.13 1016.91 1016.73 1016.63 1016.62 1016.70
1018.00 1017.33 1016.57 1015.77 1014.95 1014.15 1013.40 1012.73 1012.15 1011.66 1011.26 1010.96 1010.77 1010.70 1010.76 1010.96 1011.30 1011.74 1012.26 1012.81 1013.33 1013.79 1014.16 1014.43 1014.64 1014.81 1015.00 1015.23 1015.53 1015.90 1016.30 1016.69 1017.04 1017.28 1017.39 1017.37 1017.24 1017.04 1016.82 1016.62 1016.49 1016.43 1016.46
Thickness
5795 5797 5795 5793 5792 5791 5790 5788 5787 5786 5785 5784 5783 5783 5782 5781 5781 5780 5780 5779 5779 5779 5779 5779 5779 5779 5778 5778 5778 5778 5778 5778 5779 5780 5780 5780 5780 5780 5781 5781 5781 5780 5780
5802 5799 5797 5795 5793 5792 5791 5789 5788 5787 5785 5784 5783 5782 5781 5781 5780 5780 5779 5779 5778 5778 5778 5778 5778 5777 5777 5777 5777 5777 5777 5777 5777 5777 5777 5777 5777 5777 5778 5778 5778 5778 5778
5804 5801 5798 5796 5795 5793 5792 5790 5789 5787 5786 5784 5783 5782 5781 5780 5779 5779 5778 5778 5777 5777 5777 5777 5776 5776 5776 5775 5775 5775 5775 5774 5774 5774 5774 5774 5774 5774 5775 5775 5775 5775 5775
5805 5802 5800 5798 5796 5794 5793 5791 5790 5788 5786 5784 5783 5782 5781 5780 5779 5778 5778 5777 5776 5776 5775 5775 5775 5774 5774 5773 5773 5773 5773 5772 5772 5772 5772 5771 5771 5771 5771 5772 5772 5772 5772
5806 5803 5801 5799 5797 5795 5794 5792 5790 5788 5787 5785 5783 5782 5780 5779 5778 5777 5777 5776 5775 5775 5774 5774 5773 5772 5772 5771 5771 5771 5771 5770 5770 5769 5769 5769 5768 5768 5768 5769 5769 5769 5770
5806 5804 5801 5800 5798 5796 5795 5793 5791 5789 5787 5785 5783 5782 5780 5779 5778 5777 5776 5775 5774 5773 5773 5772 5772 5771 5770 5770 5769 5769 5769 5768 5767 5767 5766 5766 5766 5766 5766 5766 5766 5766 5767
5807 5804 5802 5800 5798 5797 5795 5793 5791 5789 5787 5785 5784 5782 5780 5778 5777 5776 5775 5774 5773 5772 5771 5771 5770 5770 5769 5769 5768 5767 5767 5766 5765 5764 5764 5764 5764 5764 5764 5763 5764 5764 5764
5809 5805 5803 5801 5799 5797 5795 5794 5792 5790 5788 5786 5784 5782 5780 5778 5777 5775 5774 5773 5772 5771 5770 5769 5769 5769 5768 5767 5766 5766 5765 5764 5763 5763 5762 5762 5762 5762 5761 5761 5761 5761 5762
5810 5806 5804 5801 5799 5797 5796 5794 5792 5790 5788 5786 5784 5782 5780 5778 5776 5775 5773 5772 5770 5769 5768 5768 5768 5768 5767 5766 5765 5764 5763 5763 5762 5761 5761 5760 5760 5760 5759 5758 5758 5759 5759
5809 5807 5805 5802 5800 5798 5796 5794 5792 5790 5788 5786 5784 5782 5779 5778 5776 5774 5773 5771 5770 5768 5768 5767 5766 5766 5766 5765 5764 5763 5761 5761 5760 5760 5759 5759 5758 5758 5757 5757 5756 5756 5756
5806 5806 5805 5803 5800 5798 5796 5794 5792 5790 5788 5785 5783 5781 5778 5776 5775 5773 5772 5770 5769 5768 5767 5766 5765 5765 5764 5764 5763 5762 5760 5759 5758 5757 5757 5757 5757 5756 5756 5755 5754 5754 5753
5804 5805 5805 5803 5801 5799 5796 5794 5791 5789 5787 5785 5782 5780 5777 5775 5773 5772 5771 5769 5768 5767 5766 5765 5764 5764 5763 5763 5762 5760 5758 5757 5756 5756 5756 5756 5755 5755 5754 5754 5753 5752 5751
5808 5806 5805 5803 5802 5799 5797 5794 5791 5789 5786 5784 5781 5779 5776 5773 5772 5770 5769 5768 5767 5766 5764 5764 5763 5763 5762 5762 5761 5759 5757 5756 5755 5755 5754 5754 5753 5753 5752 5751 5751 5750 5750
5808 5807 5807 5805 5801 5798 5796 5794 5791 5788 5785 5783 5781 5778 5775 5771 5770 5769 5767 5766 5765 5765 5763 5762 5761 5761 5761 5761 5760 5758 5756 5755 5754 5753 5752 5752 5751 5751 5750 5749 5748 5748 5747
5805 5807 5808 5806 5803 5800 5797 5794 5791 5788 5786 5783 5781 5779 5775 5771 5769 5767 5766 5764 5764 5763 5762 5761 5759 5759 5759 5760 5760 5758 5755 5753 5752 5751 5750 5750 5749 5748 5748 5747 5746 5746 5745
5799 5802 5805 5805 5804 5801 5797 5794 5792 5789 5786 5783 5781 5779 5776 5773 5770 5767 5765 5763 5762 5761 5761 5760 5758 5758 5758 5758 5758 5757 5754 5752 5750 5749 5749 5748 5747 5746 5745 5744 5743 5743 5742
5790 5793 5796 5799 5800 5799 5797 5795 5793 5789 5786 5782 5780 5778 5776 5773 5770 5767 5764 5762 5761 5760 5759 5757 5756 5755 5755 5755 5755 5754 5752 5750 5748 5747 5746 5745 5744 5744 5743 5742 5741 5740 5739
5780 5783 5786 5790 5792 5793 5793 5793 5792 5789 5785 5781 5779 5777 5774 5772 5770 5767 5764 5762 5760 5758 5756 5754 5753 5751 5750 5750 5750 5750 5749 5747 5745 5744 5743 5742 5742 5741 5740 5740 5738 5737 5736
5768 5772 5775 5778 5782 5784 5786 5788 5788 5787 5784 5780 5776 5774 5773 5770 5768 5765 5763 5761 5758 5756 5754 5752 5750 5748 5745 5744 5744 5744 5745 5744 5743 5741 5740 5739 5739 5738 5738 5737 5736 5735 5734
5757 5760 5764 5768 5771 5775 5778 5779 5780 5780 5779 5777 5774 5771 5769 5767 5764 5761 5758 5757 5755 5751 5749 5747 5745 5744 5741 5739 5739 5738 5738 5740 5740 5738 5737 5736 5736 5735 5734 5734 5733 5732 5731
5744 5747 5751 5755 5759 5764 5766 5768 5768 5769 5771 5771 5769 5767 5764 5761 5759 5756 5753 5751 5749 5746 5744 5742 5740 5737 5735 5734 5730 5727 5729 5733 5735 5736 5735 5733 5732 5732 5731 5730 5730 5728 5727
5730 5733 5738 5742 5746 5751 5756 5760 5762 5764 5763 5763 5762 5760 5757 5756 5754 5751 5749 5746 5744 5741 5738 5737 5735 5730 5729 5728 5723 5717 5714 5718 5725 5732 5732 5731 5730 5728 5727 5727 5726 5725 5724
5716 5720 5725 5729 5735 5740 5746 5751 5754 5754 5753 5752 5750 5750 5750 5749 5748 5745 5743 5741 5739 5737 5734 5732 5730 5726 5722 5721 5721 5715 5708 5706 5712 5720 5725 5727 5727 5725 5725 5724 5722 5721 5720
5702 5708 5713 5718 5724 5730 5735 5739 5741 5743 5743 5744 5745 5743 5741 5741 5740 5738 5735 5734 5733 5731 5728 5726 5725 5723 5719 5715 5714 5715 5714 5712 5706 5707 5714 5719 5721 5721 5721 5721 5720 5718 5717
5691 5697 5702 5707 5713 5719 5724 5729 5732 5735 5737 5737 5736 5735 5733 5732 5732 5730 5728 5727 5725 5723 5722 5720 5719 5717 5716 5712 5710 5709 5708 5707 5707 5703 5702 5707 5711 5715 5717 5718 5718 5716 5714
5680 5685 5691 5696 5702 5708 5714 5719 5722 5725 5727 5727 5726 5725 5724 5723 5722 5721 5721 5720 5718 5717 5715 5714 5713 5711 5710 5709 5707 5706 5704 5702 5701 5700 5698 5699 5702 5707 5712 5714 5714 5714 5713